Flag for U.S.A. Weather past 2 weeks in St. Louis, Missouri, U.S.A.

Now
83 °F

Broken clouds.


Feels Like: 88 °F
Forecast: 71 / 81 °F
Wind: 14 mph from Southwest

Location: Lambert-St. Louis International Airport

Current Time: Aug 30, 2014 at 11:34:55 AM

Latest Report: Aug 30, 2014 at 10:51 AM


Visibility: 10 mi

Pressure: 29.93 "Hg

Humidity: 68%

Dew point: 71 °F

Location of St. LouisLocation

Historic Weather in St. Louis — Graph

°F

St. Louis temperature yesterday

Maximum temperature yesterday: 92 °F (at 1:51 PM)
Minimum temperature yesterday: 75 °F (at 5:51 AM)
Average temperature yesterday: 83 °F

Past Weeks' High & Low Weather Summary

 TemperatureHumidityPressure
High98 °F (Aug 23, 2:51 PM)100% (Aug 18, 7:00 AM)30.12 "Hg (Aug 18, 7:00 AM)
Low72 °F (Aug 18, 6:03 AM)36% (Aug 29, 1:51 PM)29.75 "Hg (Aug 19, 5:51 PM)
Average83 °F71%29.91 "Hg
* Reported Aug 15 9:51 AM — Aug 30 9:51 AM, St. Louis, Weather by CustomWeather, © 2014

Note: Actual official high and low records may vary slightly from our data, if they occured in-between our weather recording intervals... More about our weather records

Advertising

St. Louis weather history for previous 24 hours

 ConditionsComfort  
Time TempWeatherWind HumidityBarometerVisibility
9:51 AM
Aug 30
80 °FBroken clouds.10 mph71%29.93 "Hg10 mi
8:51 AM77 °FBroken clouds.7 mph77%29.92 "Hg10 mi
7:51 AM76 °FPartly sunny.8 mph77%29.90 "Hg10 mi
6:51 AM76 °FPartly cloudy.12 mph77%29.90 "Hg10 mi
5:51 AM76 °FPassing clouds.9 mph74%29.89 "Hg10 mi
4:51 AM77 °FOvercast.8 mph71%29.89 "Hg10 mi
3:51 AM77 °FOvercast.9 mph71%29.88 "Hg10 mi
2:51 AM78 °FOvercast.8 mph69%29.88 "Hg10 mi
1:51 AM79 °FOvercast.9 mph69%29.88 "Hg10 mi
12:51 AM79 °FOvercast.8 mph72%29.88 "Hg10 mi
11:51 PM
Aug 29
79 °FMostly cloudy.9 mph72%29.88 "Hg10 mi
10:51 PM81 °FMostly cloudy.13 mph67%29.88 "Hg10 mi
9:51 PM83 °FPassing clouds.10 mph61%29.86 "Hg10 mi
8:51 PM84 °FPassing clouds.9 mph55%29.85 "Hg10 mi
7:51 PM85 °FCloudy.8 mph55%29.84 "Hg10 mi
6:51 PM85 °FBroken clouds.12 mph55%29.82 "Hg10 mi
5:51 PM90 °FPartly sunny.18 mph42%29.81 "Hg9 mi
4:51 PM91 °FScattered clouds.17 mph41%29.81 "Hg9 mi
3:51 PM92 °FScattered clouds.14 mph41%29.81 "Hg10 mi
1:51 PM92 °FScattered clouds.14 mph36%29.86 "Hg10 mi
12:51 PM90 °FScattered clouds.7 mph47%29.88 "Hg10 mi
11:51 AM89 °FBroken clouds.8 mph52%29.90 "Hg10 mi
Weather by CustomWeather, © 2014

See weather overviewHow to use our weather pages